Content
SEND FEEDBACK

Daily
Averages
Monthly
Summary
Canada

MONTREAL, QUEBEC


Home > North America > Canada > Quebec
Elevation: 118 feet     Latitude: 45 28N     Longitude: 073 45W

WEATHER
 
SELECT A DAY
Number of Records: 201,481;   Date Range: 1/1/95 - 10/22/14
 
SHARE

PRINT THIS DATA

[ ← Previous Day ]
WEATHER ALMANAC - JANUARY 29, 2014
[ Next Day → ]
[ °C ]   °F
Weather ElementAverageHighLow
Temperature10.9 °F14 °F (12:31 pm)6.8 °F (7:00 am)
Dewpoint1.3 °F6.8 °F (5:00 pm)-4 °F (3:00 am)
Humidity63.7 %79 % (5:00 pm)47 % (1:00 am)
Barometer30.00 in30.12 in (1:00 am)29.89 in (2:00 pm)
Wind Speed19 mph29.9 mph (1:00 pm)
Wind Gust36.8 mph (4:00 pm)
Weather ElementAverage
Visibility14.8 mi
Wind DirectionSSW (218 °)

Weather ElementTotal
Precipitation---
Heating Degree Days54.6 (Base 65)
Averaged from 30 records on January 29, 2014
WEATHER CONDITIONS BREAKOUT
WIND DIRECTION BREAKOUT
WEATHER BY HOUR - JANUARY 29, 2014
[ °C ]   °F
Local TimeTemperatureDewpointHumidityBarometerVisibilityWind DirectionWind SpeedGust SpeedPrecipitationEventsConditions
1:00 AM9.0 °F-2.0 °F47 %30.12 in15.0 miSSW (210°)13.8 mphOvercast
1:00 AM8.6 °F-2.2 °F62 %30.12 in15.0 miSSW (210°)16.1 mphOvercast
2:00 AM8.6 °F-2.2 °F62 %30.12 in15.0 miSouth (190°)13.8 mphMostly Cloudy
3:00 AM8.6 °F-4.0 °F57 %30.09 in15.0 miSouth (190°)12.7 mphOvercast
4:00 AM8.6 °F-4.0 °F57 %30.07 in15.0 miSouth (190°)11.5 mphScattered Clouds
5:00 AM8.6 °F-2.2 °F62 %30.06 in15.0 miSSW (200°)16.1 mphSnowLight Snow
6:00 AM8.6 °F-2.2 °F62 %30.04 in15.0 miSSW (210°)16.1 mphScattered Clouds
7:00 AM6.8 °F-2.2 °F67 %30.03 in30.0 miSSW (210°)15.0 mphPartly Cloudy
7:00 AM8.0 °F-2.0 °F49 %30.03 in28.0 miSSW (210°)13.8 mphPartly Cloudy
8:00 AM8.6 °F-2.2 °F62 %30.01 in15.0 miSSW (200°)16.1 mphPartly Cloudy
9:00 AM8.6 °F-2.2 °F62 %30.00 in15.0 miSSW (200°)15.0 mphScattered Clouds
10:00 AM8.6 °F-2.2 °F62 %29.99 in15.0 miSSW (210°)17.3 mphScattered Clouds
11:00 AM10.4 °F-0.4 °F62 %29.98 in15.0 miSSW (210°)15.0 mphMostly Cloudy
12:00 PM12.2 °F1.4 °F62 %29.94 in15.0 miSW (230°)18.4 mphMostly Cloudy
12:31 PM14.0 °F1.4 °F57 %29.92 in12.0 miSW (220°)26.5 mph34.5 mphSnowLight Snow Showers
1:00 PM12.2 °F1.4 °F62 %29.91 in15.0 miSW (230°)29.9 mphSnowLight Snow Showers
1:00 PM13.0 °F2.0 °F47 %29.91 in15.0 miSW (220°)27.6 mphSnowLight Snow Showers
2:00 PM14.0 °F3.2 °F62 %29.89 in15.0 miSW (220°)26.5 mph34.5 mphSnowLow Drifting Snow
3:00 PM14.0 °F5.0 °F67 %29.90 in10.0 miSW (230°)29.9 mph35.7 mphSnowLight Snow Showers
3:35 PM14.0 °F5.0 °F67 %29.91 in10.0 miSW (230°)27.6 mphSnowLow Drifting Snow
4:00 PM14.0 °F5.0 °F67 %29.92 in8.0 miSW (230°)26.5 mph36.8 mphSnowLight Snow Showers
5:00 PM12.2 °F6.8 °F79 %29.94 in8.0 miSW (230°)21.9 mph28.8 mphSnowLow Drifting Snow
5:25 PM12.2 °F6.8 °F79 %29.96 in8.0 miSW (230°)23.0 mph31.1 mphSnowLight Snow Showers
6:00 PM12.2 °F6.8 °F79 %29.99 in15.0 miWSW (240°)18.4 mph27.6 mphSnowLow Drifting Snow
7:00 PM11.0 °F5.0 °F67 %30.01 in15.0 miSW (230°)15.0 mphSnowLow Drifting Snow
7:00 PM12.2 °F5.0 °F73 %30.01 in15.0 miSW (230°)12.7 mph20.7 mphSnowLow Drifting Snow
8:00 PM12.2 °F5.0 °F73 %30.03 in15.0 miSW (230°)12.7 mph20.7 mphOvercast
9:00 PM12.2 °F3.2 °F67 %30.04 in15.0 miSW (220°)23.0 mph28.8 mphOvercast
10:00 PM12.2 °F3.2 °F67 %30.07 in15.0 miWSW (240°)23.0 mph28.8 mphMostly Cloudy
11:00 PM12.2 °F1.4 °F62 %30.09 in15.0 miWSW (240°)15.0 mphScattered Clouds
Hourly data recorded from CYUL, located miles away from Montreal, Quebec







STORIES FROM OUR PARTNERS